Baton Rouge, LA

8:08 AM CDT on July 25, 2017 (GMT -0500)
Baton Rouge Metro-Ryan

Weather History for KBTR - March, 2014

Change the Weather History Date:

Tuesday, March 25, 2014

  Actual Average Record
Temperature  
Mean Temperature 56 °F 63 °F  
Max Temperature 68 °F 75 °F 90 °F (1921)
Min Temperature 43 °F 52 °F 33 °F (1966)
Degree Days  
Heating Degree Days 9 4  
Month to date heating degree days 187 146  
Since 1 July heating degree days 1893 1481  
Cooling Degree Days 0 2  
Month to date cooling degree days 19 43  
Year to date cooling degree days 39 74  
Growing Degree Days 5 (Base 50)    
Moisture  
Dew Point 29 °F    
Average Humidity 44    
Maximum Humidity 70    
Minimum Humidity 18    
Precipitation  
Precipitation 0.00 in 0.15 in 1.76 in (1976)
Month to date precipitation 1.55 3.50  
Year to date precipitation 10.82 14.26  
Snow  
Snow 0.00 in - - ()
Month to date snowfall 0.0  
Since 1 July snowfall 0.4  
Snow Depth 0.00 in    
Sea Level Pressure  
Sea Level Pressure 30.20 in    
Wind  
Wind Speed 6 mph (North)    
Max Wind Speed 20 mph    
Max Gust Speed 29 mph    
Visibility 10 miles    
Events      
T = Trace of Precipitation, MM = Missing Value Source: NWS Daily Summary

Daily Weather History Graph

Daily Weather History Graph

Search for Another Location

Airport or City:

Trip Planner

Search our weather history database for the weather conditions in past years. The results will help you decide how hot, cold, wet, or windy it might be!

Date:

Astronomy

Mar. 25, 2014 Rise Set
Actual Time 7:02 AM CDT 7:19 PM CDT
Civil Twilight 6:38 AM CDT 7:43 PM CDT
Nautical Twilight 6:10 AM CDT 8:11 PM CDT
Astronomical Twilight 5:41 AM CDT 8:39 PM CDT
Moon 3:03 AM CDT 2:09 PM CDT
Length of Visible Light 13h 05m
Length of Day
12h 17m
Waning Crescent, 32% of the Moon is Illuminated
Mar 25
Waning Crescent
Mar 30
New
Apr 7
First Quarter
Apr 15
Full
Apr 22
Last Quarter

Hourly Weather History & Observations

Time (CDT) Temp. Windchill Dew Point Humidity Pressure Visibility Wind Dir Wind Speed Gust Speed Precip Events Conditions
12:53 AM 55.0 °F - 37.0 °F 51% 30.10 in 10.0 mi North 6.9 mph - N/A   Clear
1:53 AM 52.0 °F - 37.0 °F 57% 30.10 in 10.0 mi Variable 3.5 mph - N/A   Clear
2:53 AM 50.0 °F - 37.0 °F 61% 30.10 in 10.0 mi Variable 3.5 mph - N/A   Clear
3:53 AM 48.9 °F - 36.0 °F 61% 30.09 in 10.0 mi North 4.6 mph - N/A   Clear
4:53 AM 48.0 °F - 35.1 °F 61% 30.11 in 10.0 mi North 4.6 mph - N/A   Clear
5:53 AM 45.0 °F - 36.0 °F 71% 30.13 in 10.0 mi Calm Calm - N/A   Clear
6:53 AM 44.1 °F 42.5 °F 35.1 °F 71% 30.15 in 10.0 mi North 3.5 mph - N/A   Clear
7:53 AM 46.9 °F - 33.1 °F 59% 30.18 in 10.0 mi NNE 6.9 mph - N/A   Clear
8:53 AM 53.1 °F - 32.0 °F 45% 30.21 in 10.0 mi North 4.6 mph - N/A   Clear
9:53 AM 57.9 °F - 28.0 °F 32% 30.24 in 10.0 mi NNE 10.4 mph - N/A   Clear
10:53 AM 62.1 °F - 28.9 °F 29% 30.26 in 10.0 mi Variable 6.9 mph 23.0 mph N/A   Clear
11:53 AM 64.0 °F - 30.9 °F 29% 30.25 in 10.0 mi NNW 8.1 mph 19.6 mph N/A   Clear
12:53 PM 64.9 °F - 25.0 °F 22% 30.24 in 10.0 mi NNW 15.0 mph 23.0 mph N/A   Clear
1:53 PM 66.0 °F - 21.9 °F 19% 30.22 in 10.0 mi NNW 17.3 mph 25.3 mph N/A   Clear
2:53 PM 66.0 °F - 23.0 °F 20% 30.20 in 10.0 mi North 10.4 mph 25.3 mph N/A   Clear
3:53 PM 66.9 °F - 23.0 °F 19% 30.19 in 10.0 mi Variable 6.9 mph 19.6 mph N/A   Clear
4:53 PM 64.9 °F - 21.9 °F 19% 30.20 in 10.0 mi NNW 11.5 mph 19.6 mph N/A   Clear
5:53 PM 64.0 °F - 23.0 °F 21% 30.21 in 10.0 mi North 8.1 mph 19.6 mph N/A   Clear
6:53 PM 61.0 °F - 24.1 °F 24% 30.22 in 10.0 mi Variable 5.8 mph - N/A   Clear
7:53 PM 57.0 °F - 25.0 °F 29% 30.24 in 10.0 mi Calm Calm - N/A   Clear
8:53 PM 53.1 °F - 27.0 °F 37% 30.26 in 10.0 mi Calm Calm - N/A   Clear
9:53 PM 51.1 °F - 28.0 °F 41% 30.27 in 10.0 mi NE 6.9 mph - N/A   Clear
10:53 PM 48.0 °F - 30.0 °F 50% 30.29 in 10.0 mi NE 3.5 mph - N/A   Clear
11:53 PM 45.0 °F 41.2 °F 30.0 °F 56% 30.28 in 10.0 mi ENE 6.9 mph - N/A   Clear